| time (UTC) | temp F | wind direction | speed knots | gust knots | rain 1hr in | rain 24hr in | rain mn in | humidity % | barometer mb |
| 20260506134540 | 78 | 104 | 9.6 | 13.9 | 0.00 | 0.00 | 0.00 | 95 | 1009.7 |
| 20260506133900 | 78 | 111 | 11.3 | 15.6 | 0.00 | 0.00 | 0.00 | 95 | 1009.7 |
| 20260506133220 | 77 | 114 | 10.4 | 14.8 | 0.00 | 0.00 | 0.00 | 95 | 1009.7 |
| 20260506132540 | 78 | 111 | 9.6 | 14.8 | 0.00 | 0.00 | 0.00 | 95 | 1009.7 |
| 20260506131900 | 77 | 117 | 12.2 | 13.9 | 0.00 | 0.00 | 0.00 | 95 | 1009.7 |
| 20260506131220 | 77 | 112 | 8.7 | 11.3 | 0.00 | 0.00 | 0.00 | 96 | 1009.7 |
| 20260506130754 | 77 | 120 | 9.6 | 11.3 | 0.00 | 0.00 | 0.00 | 96 | 1010.0 |
| 20260506130109 | 77 | 121 | 8.7 | 10.4 | 0.00 | 0.00 | 0.00 | 96 | 1010.0 |
| 20260506125430 | 77 | 123 | 7.8 | 12.2 | 0.00 | 0.00 | 0.00 | 96 | 1009.7 |
| 20260506124540 | 77 | 123 | 8.7 | 12.2 | 0.00 | 0.00 | 0.00 | 97 | 1009.7 |
| 20260506124111 | 77 | 117 | 7.8 | 10.4 | 0.00 | 0.00 | 0.00 | 97 | 1009.7 |
| 20260506123432 | 77 | 125 | 7.8 | 10.4 | 0.00 | 0.00 | 0.00 | 97 | 1009.7 |
| 20260506122542 | 77 | 124 | 7.0 | 10.4 | 0.00 | 0.00 | 0.00 | 96 | 1009.7 |
| 20260506122113 | 77 | 126 | 8.7 | 12.2 | 0.00 | 0.00 | 0.00 | 96 | 1009.7 |
| 20260506121434 | 77 | 128 | 7.8 | 13.9 | 0.00 | 0.00 | 0.00 | 96 | 1009.3 |
| 20260506120540 | 77 | 122 | 10.4 | 12.2 | 0.00 | 0.00 | 0.00 | 96 | 1009.3 |
| 20260506115902 | 77 | 125 | 7.8 | 13.9 | 0.00 | 0.00 | 0.00 | 96 | 1009.3 |
| 20260506115221 | 77 | 123 | 10.4 | 13.9 | 0.00 | 0.00 | 0.00 | 96 | 1009.3 |
| 20260506114540 | 77 | 122 | 11.3 | 13.0 | 0.00 | 0.00 | 0.00 | 96 | 1009.0 |
| 20260506113900 | 77 | 123 | 10.4 | 12.2 | 0.00 | 0.00 | 0.00 | 96 | 1009.3 |
| 20260506113222 | 77 | 122 | 9.6 | 12.2 | 0.00 | 0.00 | 0.00 | 96 | 1009.3 |
| 20260506112540 | 77 | 123 | 7.8 | 12.2 | 0.00 | 0.00 | 0.00 | 96 | 1009.3 |
| 20260506112114 | 77 | 123 | 8.7 | 12.2 | 0.00 | 0.00 | 0.00 | 96 | 1009.0 |
| 20260506111429 | 77 | 117 | 9.6 | 13.9 | 0.00 | 0.00 | 0.00 | 96 | 1009.0 |
| 20260506110540 | 77 | 120 | 8.7 | 13.9 | 0.00 | 0.00 | 0.00 | 96 | 1009.0 |
| 20260506105900 | 77 | 121 | 11.3 | 13.9 | 0.00 | 0.00 | 0.00 | 96 | 1009.0 |
| 20260506105431 | 77 | 121 | 8.7 | 13.9 | 0.00 | 0.00 | 0.00 | 96 | 1009.0 |
| 20260506104752 | 77 | 117 | 10.4 | 14.8 | 0.00 | 0.00 | 0.00 | 96 | 1009.0 |
| 20260506103900 | 77 | 123 | 11.3 | 14.8 | 0.00 | 0.00 | 0.00 | 96 | 1009.0 |
| 20260506103220 | 77 | 121 | 9.6 | 11.3 | 0.00 | 0.00 | 0.00 | 96 | 1009.0 |
| 20260506102540 | 77 | 132 | 8.7 | 11.3 | 0.00 | 0.00 | 0.00 | 96 | 1009.0 |
| 20260506101900 | 77 | 127 | 9.6 | 13.0 | 0.00 | 0.00 | 0.00 | 96 | 1009.0 |
| 20260506101220 | 77 | 126 | 8.7 | 13.0 | 0.00 | 0.00 | 0.00 | 96 | 1009.0 |
| 20260506100540 | 77 | 127 | 8.7 | 12.2 | 0.00 | 0.00 | 0.00 | 95 | 1008.6 |
| 20260506095901 | 77 | 121 | 7.0 | 14.8 | 0.00 | 0.00 | 0.00 | 95 | 1008.6 |
| 20260506095220 | 77 | 117 | 11.3 | 14.8 | 0.00 | 0.00 | 0.00 | 96 | 1008.6 |
| 20260506094540 | 77 | 120 | 12.2 | 15.6 | 0.00 | 0.00 | 0.00 | 96 | 1008.6 |
| 20260506094113 | 77 | 117 | 12.2 | 15.6 | 0.00 | 0.00 | 0.00 | 96 | 1008.6 |
| 20260506093220 | 77 | 119 | 12.2 | 14.8 | 0.00 | 0.00 | 0.00 | 96 | 1008.6 |
| 20260506092540 | 77 | 115 | 10.4 | 13.9 | 0.00 | 0.00 | 0.00 | 96 | 1008.6 |
| 20260506091900 | 77 | 117 | 10.4 | 14.8 | 0.00 | 0.00 | 0.00 | 96 | 1008.6 |
| 20260506091220 | 77 | 113 | 10.4 | 14.8 | 0.00 | 0.00 | 0.00 | 96 | 1008.6 |
| 20260506090540 | 77 | 116 | 12.2 | 14.8 | 0.00 | 0.00 | 0.00 | 96 | 1008.6 |
| 20260506085900 | 77 | 118 | 11.3 | 14.8 | 0.00 | 0.00 | 0.00 | 96 | 1008.6 |
| 20260506085220 | 77 | 115 | 12.2 | 14.8 | 0.00 | 0.00 | 0.00 | 96 | 1008.6 |
| 20260506084753 | 77 | 114 | 8.7 | 12.2 | 0.00 | 0.00 | 0.00 | 96 | 1008.6 |
| 20260506083900 | 77 | 119 | 7.8 | 10.4 | 0.00 | 0.00 | 0.00 | 97 | 1009.0 |
| 20260506083220 | 77 | 128 | 7.8 | 11.3 | 0.00 | 0.00 | 0.00 | 97 | 1009.0 |
| 20260506082750 | 77 | 133 | 7.8 | 10.4 | 0.00 | 0.00 | 0.00 | 97 | 1009.0 |
| 20260506081900 | 77 | 129 | 8.7 | 10.4 | 0.00 | 0.00 | 0.00 | 97 | 1009.3 |
| 20260506081220 | 77 | 124 | 7.8 | 10.4 | 0.00 | 0.00 | 0.00 | 97 | 1009.3 |
| 20260506080540 | 77 | 129 | 8.7 | 11.3 | 0.00 | 0.00 | 0.00 | 97 | 1009.0 |
| 20260506073220 | 77 | 136 | 7.0 | 10.4 | 0.00 | 0.00 | 0.00 | 96 | 1009.7 |
| 20260506072750 | 77 | 138 | 6.1 | 10.4 | 0.00 | 0.00 | 0.00 | 96 | 1009.7 |
| 20260506071900 | 77 | 134 | 6.1 | 10.4 | 0.00 | 0.00 | 0.00 | 96 | 1009.7 |
| 20260506071220 | 77 | 138 | 7.0 | 8.7 | 0.00 | 0.00 | 0.00 | 96 | 1009.7 |
| 20260506070540 | 77 | 139 | 6.1 | 11.3 | 0.00 | 0.00 | 0.00 | 96 | 1010.0 |
| 20260506061900 | 77 | 131 | 10.4 | 13.9 | 0.00 | 0.00 | 0.00 | 96 | 1009.7 |
| 20260506061220 | 77 | 127 | 9.6 | 16.5 | 0.00 | 0.00 | 0.00 | 96 | 1009.7 |
| 20260506060540 | 77 | 127 | 11.3 | 16.5 | 0.00 | 0.00 | 0.00 | 96 | 1009.7 |
| 20260506051221 | 77 | 128 | 12.2 | 17.4 | 0.00 | 0.00 | 0.00 | 95 | 1009.3 |
| 20260506050540 | 77 | 124 | 12.2 | 17.4 | 0.00 | 0.00 | 0.00 | 95 | 1009.3 |
| 20260506044540 | 77 | 127 | 13.0 | 20.0 | 0.00 | 0.00 | 0.00 | 95 | 1009.7 |
| 20260506044111 | 77 | 126 | 13.9 | 20.0 | 0.00 | 0.00 | 0.00 | 94 | 1009.7 |
| 20260506043220 | 77 | 128 | 13.9 | 19.1 | 0.00 | 0.00 | 0.00 | 94 | 1009.3 |
| 20260506042540 | 77 | 127 | 13.9 | 17.4 | 0.00 | 0.00 | 0.00 | 94 | 1009.3 |
| 20260506041900 | 77 | 126 | 13.0 | 19.1 | 0.00 | 0.00 | 0.00 | 94 | 1009.7 |
| 20260506041220 | 77 | 126 | 12.2 | 17.4 | 0.00 | 0.00 | 0.00 | 94 | 1009.3 |
| 20260506040540 | 77 | 128 | 13.0 | 19.1 | 0.00 | 0.00 | 0.00 | 94 | 1009.7 |
| 20260506035900 | 77 | 130 | 15.6 | 20.9 | 0.00 | 0.00 | 0.00 | 94 | 1009.7 |
| 20260506035220 | 77 | 128 | 13.0 | 20.9 | 0.00 | 0.00 | 0.00 | 94 | 1009.7 |
| 20260506034751 | 77 | 127 | 12.2 | 19.1 | 0.00 | 0.00 | 0.00 | 94 | 1009.7 |
| 20260506033900 | 77 | 128 | 13.9 | 19.1 | 0.00 | 0.00 | 0.00 | 94 | 1009.3 |
| 20260506033220 | 77 | 127 | 13.0 | 19.1 | 0.00 | 0.00 | 0.00 | 94 | 1009.7 |
| 20260506032540 | 77 | 126 | 13.9 | 18.2 | 0.00 | 0.00 | 0.00 | 94 | 1009.3 |
| 20260506031900 | 77 | 125 | 13.0 | 19.1 | 0.00 | 0.00 | 0.00 | 94 | 1009.3 |
| 20260506031220 | 77 | 127 | 13.0 | 19.1 | 0.00 | 0.00 | 0.00 | 94 | 1009.3 |
| 20260506030540 | 77 | 124 | 13.9 | 19.1 | 0.00 | 0.00 | 0.00 | 94 | 1009.3 |
| 20260506025900 | 77 | 127 | 13.9 | 20.0 | 0.00 | 0.00 | 0.00 | 94 | 1009.3 |
| 20260506025431 | 77 | 129 | 14.8 | 18.2 | 0.00 | 0.00 | 0.00 | 94 | 1009.3 |
| 20260506024540 | 77 | 130 | 14.8 | 18.2 | 0.00 | 0.00 | 0.00 | 94 | 1009.0 |
| 20260506023900 | 77 | 127 | 14.8 | 19.1 | 0.00 | 0.00 | 0.00 | 94 | 1009.0 |
| 20260506023220 | 77 | 130 | 13.9 | 20.9 | 0.00 | 0.00 | 0.00 | 94 | 1009.0 |
| 20260506022540 | 77 | 129 | 15.6 | 19.1 | 0.00 | 0.00 | 0.00 | 94 | 1009.0 |
| 20260506021900 | 77 | 128 | 14.8 | 19.1 | 0.00 | 0.00 | 0.00 | 94 | 1008.6 |
| 20260506021220 | 77 | 129 | 13.9 | 20.9 | 0.00 | 0.00 | 0.00 | 94 | 1008.6 |
| 20260506020540 | 77 | 129 | 15.6 | 20.9 | 0.00 | 0.00 | 0.00 | 94 | 1008.6 |
| 20260506015900 | 77 | 127 | 14.8 | 20.0 | 0.00 | 0.00 | 0.00 | 94 | 1008.6 |
| 20260506015220 | 77 | 129 | 15.6 | 20.0 | 0.00 | 0.00 | 0.00 | 94 | 1008.3 |
| 20260506014540 | 77 | 127 | 13.9 | 20.0 | 0.00 | 0.00 | 0.00 | 94 | 1008.3 |
| 20260506013900 | 77 | 128 | 13.0 | 20.0 | 0.00 | 0.00 | 0.00 | 94 | 1008.3 |
| 20260506013220 | 77 | 123 | 15.6 | 20.0 | 0.00 | 0.00 | 0.00 | 94 | 1008.0 |
| 20260506012540 | 77 | 122 | 13.0 | 18.2 | 0.00 | 0.00 | 0.00 | 94 | 1008.0 |
| 20260506011902 | 77 | 122 | 13.0 | 18.2 | 0.00 | 0.00 | 0.00 | 94 | 1008.0 |
| 20260506011220 | 77 | 122 | 11.3 | 15.6 | 0.00 | 0.00 | 0.00 | 94 | 1008.0 |
| 20260506010540 | 77 | 125 | 10.4 | 17.4 | 0.00 | 0.00 | 0.00 | 93 | 1007.6 |
| 20260506010112 | 77 | 124 | 11.3 | 15.6 | 0.00 | 0.00 | 0.00 | 93 | 1007.6 |
| 20260506005432 | 77 | 125 | 11.3 | 16.5 | 0.00 | 0.00 | 0.00 | 93 | 1007.6 |
| 20260506004541 | 77 | 125 | 13.0 | 17.4 | 0.00 | 0.00 | 0.00 | 93 | 1007.6 |
| 20260506003900 | 77 | 127 | 13.9 | 19.1 | 0.00 | 0.00 | 0.00 | 93 | 1007.6 |
| 20260506003220 | 77 | 130 | 15.6 | 18.2 | 0.00 | 0.00 | 0.00 | 93 | 1007.6 |
| 20260506002540 | 77 | 130 | 12.2 | 19.1 | 0.00 | 0.00 | 0.00 | 92 | 1007.6 |
| 20260506001900 | 77 | 128 | 14.8 | 19.1 | 0.00 | 0.00 | 0.00 | 92 | 1007.6 |
| 20260506001222 | 77 | 133 | 13.9 | 19.1 | 0.00 | 0.00 | 0.00 | 92 | 1008.0 |
| 20260506000540 | 78 | 129 | 13.9 | 19.1 | 0.00 | 0.00 | 0.00 | 92 | 1008.0 |
| 20260506000112 | 78 | 126 | 13.9 | 19.1 | 0.00 | 0.00 | 0.00 | 92 | 1008.0 |
| 20260505235433 | 78 | 129 | 13.9 | 18.2 | 0.00 | 0.00 | 0.00 | 92 | 1008.0 |
| 20260505234754 | 78 | 130 | 13.9 | 18.2 | 0.00 | 0.00 | 0.00 | 92 | 1007.6 |
| 20260505233900 | 78 | 129 | 13.9 | 18.2 | 0.00 | 0.00 | 0.00 | 91 | 1007.6 |
| 20260505233220 | 78 | 133 | 15.6 | 18.2 | 0.00 | 0.00 | 0.00 | 91 | 1007.6 |
| 20260505232540 | 78 | 131 | 15.6 | 19.1 | 0.00 | 0.00 | 0.00 | 91 | 1008.0 |
| 20260505231900 | 78 | 135 | 13.9 | 18.2 | 0.00 | 0.00 | 0.00 | 90 | 1008.3 |
| 20260505231220 | 78 | 132 | 13.0 | 19.1 | 0.00 | 0.00 | 0.00 | 90 | 1008.3 |
| 20260505230540 | 78 | 132 | 13.0 | 19.1 | 0.00 | 0.00 | 0.00 | 89 | 1008.0 |
| 20260505230113 | 78 | 137 | 13.0 | 19.1 | 0.00 | 0.00 | 0.00 | 89 | 1008.3 |
| 20260505225220 | 78 | 135 | 13.9 | 18.2 | 0.00 | 0.00 | 0.00 | 89 | 1008.3 |
| 20260505224542 | 78 | 141 | 13.0 | 20.0 | 0.00 | 0.00 | 0.00 | 90 | 1008.3 |
| 20260505223900 | 78 | 140 | 14.8 | 20.0 | 0.00 | 0.00 | 0.00 | 89 | 1008.3 |
| 20260505223430 | 78 | 142 | 16.5 | 20.0 | 0.00 | 0.00 | 0.00 | 89 | 1008.3 |
| 20260505222540 | 78 | 132 | 13.0 | 16.5 | 0.00 | 0.00 | 0.00 | 89 | 1008.3 |
| 20260505221900 | 78 | 137 | 8.7 | 17.4 | 0.00 | 0.00 | 0.00 | 90 | 1008.3 |
| 20260505221220 | 78 | 137 | 13.9 | 20.0 | 0.00 | 0.00 | 0.00 | 88 | 1008.3 |
| 20260505220540 | 79 | 135 | 13.0 | 20.0 | 0.00 | 0.00 | 0.00 | 88 | 1008.3 |
| 20260505215900 | 78 | 145 | 16.5 | 20.0 | 0.00 | 0.00 | 0.00 | 89 | 1008.3 |
| 20260505215220 | 79 | 136 | 13.0 | 19.1 | 0.00 | 0.00 | 0.00 | 88 | 1008.3 |
| 20260505214540 | 78 | 148 | 14.8 | 19.1 | 0.00 | 0.00 | 0.00 | 88 | 1008.3 |
| 20260505213900 | 79 | 143 | 13.9 | 20.0 | 0.00 | 0.00 | 0.00 | 88 | 1008.3 |
| 20260505213220 | 79 | 139 | 16.5 | 20.0 | 0.00 | 0.00 | 0.00 | 87 | 1008.6 |
| 20260505212540 | 79 | 142 | 13.9 | 17.4 | 0.00 | 0.00 | 0.00 | 86 | 1008.6 |
| 20260505211900 | 79 | 147 | 10.4 | 18.2 | 0.00 | 0.00 | 0.00 | 87 | 1009.0 |
| 20260505211220 | 79 | 154 | 13.9 | 19.1 | 0.00 | 0.00 | 0.00 | 87 | 1009.0 |
| 20260505210540 | 78 | 146 | 14.8 | 19.1 | 0.00 | 0.00 | 0.00 | 89 | 1009.0 |
| 20260505205900 | 79 | 142 | 14.8 | 18.2 | 0.00 | 0.00 | 0.00 | 89 | 1009.0 |
| 20260505205220 | 79 | 143 | 10.4 | 17.4 | 0.00 | 0.00 | 0.00 | 88 | 1009.0 |
| 20260505204540 | 78 | 144 | 13.0 | 18.2 | 0.00 | 0.00 | 0.00 | 88 | 1009.3 |
| 20260505203900 | 78 | 138 | 12.2 | 20.0 | 0.00 | 0.00 | 0.00 | 89 | 1009.3 |
| 20260505203220 | 78 | 146 | 13.0 | 20.9 | 0.00 | 0.00 | 0.00 | 90 | 1009.7 |
| 20260505202540 | 78 | 145 | 15.6 | 21.7 | 0.00 | 0.00 | 0.00 | 89 | 1009.7 |
| 20260505201900 | 78 | 155 | 14.8 | 21.7 | 0.00 | 0.00 | 0.00 | 89 | 1009.7 |
| 20260505201220 | 78 | 135 | 14.8 | 19.1 | 0.00 | 0.00 | 0.00 | 90 | 1009.3 |
| 20260505200540 | 78 | 150 | 13.9 | 20.9 | 0.00 | 0.00 | 0.00 | 90 | 1009.7 |
| 20260505195900 | 78 | 149 | 14.8 | 20.9 | 0.00 | 0.00 | 0.00 | 88 | 1009.7 |
| 20260505195221 | 78 | 146 | 16.5 | 21.7 | 0.00 | 0.00 | 0.00 | 89 | 1009.7 |
| 20260505194751 | 78 | 150 | 17.4 | 23.5 | 0.00 | 0.00 | 0.00 | 89 | 1009.7 |
| 20260505193900 | 78 | 151 | 17.4 | 23.5 | 0.00 | 0.00 | 0.00 | 88 | 1009.7 |
| 20260505193220 | 78 | 146 | 17.4 | 22.6 | 0.00 | 0.00 | 0.00 | 89 | 1009.7 |
| 20260505192540 | 78 | 145 | 15.6 | 21.7 | 0.00 | 0.00 | 0.00 | 87 | 1009.7 |
| 20260505191900 | 79 | 143 | 15.6 | 20.9 | 0.00 | 0.00 | 0.00 | 88 | 1009.7 |
| 20260505191220 | 79 | 141 | 15.6 | 20.0 | 0.00 | 0.00 | 0.00 | 86 | 1009.7 |
| 20260505190750 | 78 | 150 | 17.4 | 20.9 | 0.00 | 0.00 | 0.00 | 89 | 1009.7 |
| 20260505185900 | 78 | 150 | 14.8 | 20.9 | 0.00 | 0.00 | 0.00 | 87 | 1010.0 |
| 20260505185220 | 78 | 145 | 14.8 | 22.6 | 0.00 | 0.00 | 0.00 | 89 | 1010.0 |
| 20260505184540 | 78 | 147 | 18.2 | 22.6 | 0.00 | 0.00 | 0.00 | 88 | 1009.7 |
| 20260505184112 | 78 | 145 | 19.1 | 23.5 | 0.00 | 0.00 | 0.00 | 89 | 1010.0 |
| 20260505183220 | 78 | 143 | 17.4 | 23.5 | 0.00 | 0.00 | 0.00 | 88 | 1010.0 |
| 20260505182540 | 78 | 146 | 16.5 | 23.5 | 0.00 | 0.00 | 0.00 | 88 | 1010.0 |
| 20260505181900 | 78 | 148 | 19.1 | 23.5 | 0.00 | 0.00 | 0.00 | 86 | 1009.7 |
| 20260505181220 | 78 | 143 | 17.4 | 22.6 | 0.00 | 0.00 | 0.00 | 86 | 1010.0 |
| 20260505180540 | 78 | 151 | 17.4 | 23.5 | 0.00 | 0.00 | 0.00 | 86 | 1010.0 |
| 20260505175900 | 79 | 145 | 15.6 | 22.6 | 0.00 | 0.00 | 0.00 | 86 | 1010.0 |
| 20260505175220 | 79 | 143 | 13.0 | 22.6 | 0.00 | 0.00 | 0.00 | 85 | 1010.3 |
| 20260505174540 | 79 | 142 | 15.6 | 22.6 | 0.00 | 0.00 | 0.00 | 86 | 1010.3 |
| 20260505173900 | 78 | 140 | 14.8 | 21.7 | 0.00 | 0.00 | 0.00 | 87 | 1010.3 |
| 20260505173220 | 78 | 137 | 15.6 | 24.3 | 0.00 | 0.00 | 0.00 | 88 | 1010.3 |
| 20260505172540 | 78 | 142 | 13.9 | 20.9 | 0.00 | 0.00 | 0.00 | 86 | 1010.3 |
| 20260505171900 | 79 | 135 | 15.6 | 20.0 | 0.00 | 0.00 | 0.00 | 86 | 1010.3 |
| 20260505171430 | 79 | 142 | 13.9 | 19.1 | 0.00 | 0.00 | 0.00 | 87 | 1010.3 |
| 20260505170542 | 78 | 143 | 13.9 | 19.1 | 0.00 | 0.00 | 0.00 | 87 | 1010.3 |
| 20260505165902 | 78 | 140 | 12.2 | 20.9 | 0.00 | 0.00 | 0.00 | 87 | 1010.3 |
| 20260505165432 | 78 | 138 | 13.0 | 20.9 | 0.00 | 0.00 | 0.00 | 88 | 1010.7 |
| 20260505164753 | 78 | 149 | 13.0 | 20.9 | 0.00 | 0.00 | 0.00 | 90 | 1010.7 |
| 20260505163900 | 77 | 149 | 15.6 | 22.6 | 0.00 | 0.00 | 0.00 | 89 | 1010.3 |
| 20260505163220 | 77 | 152 | 13.9 | 19.1 | 0.00 | 0.00 | 0.00 | 90 | 1010.3 |
| 20260505162540 | 77 | 151 | 13.0 | 20.0 | 0.00 | 0.00 | 0.00 | 89 | 1010.3 |
| 20260505162110 | 77 | 151 | 13.0 | 20.9 | 0.00 | 0.00 | 0.00 | 90 | 1010.3 |
| 20260505161431 | 78 | 149 | 14.8 | 20.9 | 0.00 | 0.00 | 0.00 | 89 | 1010.3 |
| 20260505160540 | 77 | 144 | 17.4 | 20.9 | 0.00 | 0.00 | 0.00 | 89 | 1010.3 |
| 20260505153220 | 77 | 151 | 16.5 | 21.7 | 0.00 | 0.00 | 0.00 | 90 | 1010.3 |
| 20260505152540 | 77 | 145 | 18.2 | 22.6 | 0.00 | 0.00 | 0.00 | 89 | 1010.3 |
| 20260505151900 | 77 | 151 | 14.8 | 20.9 | 0.00 | 0.00 | 0.00 | 90 | 1010.3 |
| 20260505151220 | 77 | 147 | 14.8 | 19.1 | 0.00 | 0.00 | 0.00 | 90 | 1010.3 |
| 20260505150540 | 77 | 149 | 14.8 | 18.2 | 0.00 | 0.00 | 0.00 | 89 | 1010.3 |
| 20260505150113 | 77 | 152 | 12.2 | 19.1 | 0.00 | 0.00 | 0.00 | 89 | 1010.3 |
| 20260505140540 | 76 | 147 | 17.4 | 21.7 | 0.00 | 0.00 | 0.00 | 90 | 1010.0 |